2010 LN135

Japanese version
Home page
Updated on May 11, 2024

---------------------------------------------------------------------

* Profile

The cometary activity of 2010 LN135 was observed in 2010 June to July at Palomar Transient Factory survey (Main-belt comets in the Palomar Transient Factory survey . I. The search for extendedness).

* Orbital Elements

Epoch 2011 June 8.0 TT = JDT 2455720.5                                          
T 2011 May 22.67423 TT                                  Rudenko                 
q   1.7409037            (2000.0)            P               Q                  
z  -0.0006318      Peri.  181.55798     +0.99494566     -0.06417446             
 +/-0.0000242      Node   184.91516     +0.09909126     +0.75194637             
e   1.0010998      Incl.   64.34192     +0.01624954     -0.65609320             
H   14.0                                                                        
>From 35 observations 2010 June 3-Oct. 19, mean residual 0".8.                   

* Magnitudes Graph

        H = 14.0  G = 0.15

---------------------------------------------------------------------

The orbital elements are published on M.P.E.C. 2024-H77.
The magnitudes graphs are made with Comet for Windows.

---------------------------------------------------------------------

Copyright(C) Seiichi Yoshida (comet@aerith.net). All rights reserved.